| time (UTC) | temp C | wind direction | speed KPH | gust KPH | rain 1hr cm | rain 24hr cm | rain mn cm | humidity % | barometer mb |
| 20260901224551 | 32 | 26 | 6.4 | 11.3 | 0.00 | 0.03 | 0.03 | 64 | 1014.5 |
| 20260901223050 | 32 | 9 | 0.0 | 8.0 | 0.00 | 0.03 | 0.03 | 66 | 1014.4 |
| 20260901221604 | 32 | 313 | 4.8 | 11.3 | 0.00 | 0.03 | 0.03 | 64 | 1014.6 |
| 20260901220017 | 33 | 315 | 6.4 | 11.3 | 0.00 | 0.03 | 0.03 | 60 | 1014.7 |
| 20260901214516 | 33 | 309 | 1.6 | 8.0 | 0.00 | 0.03 | 0.03 | 63 | 1014.9 |
| 20260901213024 | 33 | 312 | 0.0 | 9.7 | 0.00 | 0.03 | 0.03 | 61 | 1015.0 |
| 20260901211514 | 33 | 304 | 6.4 | 11.3 | 0.00 | 0.03 | 0.03 | 63 | 1015.2 |
| 20260901210014 | 33 | 302 | 3.2 | 11.3 | 0.00 | 0.03 | 0.03 | 61 | 1015.2 |
| 20260901204515 | 33 | 309 | 3.2 | 8.0 | 0.00 | 0.03 | 0.03 | 64 | 1015.3 |
| 20260901203006 | 33 | 315 | 1.6 | 8.0 | 0.00 | 0.03 | 0.03 | 64 | 1015.4 |
| 20260901201504 | 33 | 315 | 1.6 | 9.7 | 0.00 | 0.03 | 0.03 | 61 | 1015.5 |
| 20260901200002 | 33 | 315 | 3.2 | 12.9 | 0.00 | 0.03 | 0.03 | 63 | 1015.5 |
| 20260901194501 | 33 | 318 | 8.0 | 14.5 | 0.00 | 0.03 | 0.03 | 64 | 1015.6 |
| 20260901193056 | 33 | 309 | 6.4 | 12.9 | 0.00 | 0.03 | 0.03 | 65 | 1015.7 |
| 20260901191553 | 33 | 311 | 8.0 | 12.9 | 0.00 | 0.03 | 0.03 | 60 | 1015.9 |
| 20260901190051 | 34 | 287 | 4.8 | 9.7 | 0.00 | 0.03 | 0.03 | 60 | 1015.9 |
| 20260901184554 | 34 | 35 | 8.0 | 14.5 | 0.00 | 0.03 | 0.03 | 54 | 1016.0 |
| 20260901183024 | 34 | 148 | 3.2 | 9.7 | 0.00 | 0.03 | 0.03 | 55 | 1016.1 |
| 20260901181515 | 33 | 144 | 3.2 | 14.5 | 0.00 | 0.03 | 0.03 | 56 | 1016.3 |
| 20260901180015 | 33 | 105 | 4.8 | 8.0 | 0.00 | 0.03 | 0.03 | 58 | 1016.5 |
| 20260901174508 | 33 | 157 | 3.2 | 9.7 | 0.00 | 0.03 | 0.03 | 62 | 1016.7 |
| 20260901173006 | 33 | 66 | 6.4 | 12.9 | 0.00 | 0.03 | 0.03 | 62 | 1016.8 |
| 20260901171506 | 32 | 97 | 4.8 | 14.5 | 0.00 | 0.03 | 0.03 | 63 | 1017.0 |
| 20260901170104 | 32 | 65 | 4.8 | 14.5 | 0.00 | 0.03 | 0.03 | 64 | 1017.1 |
| 20260901170000 | 32 | 65 | 8.0 | 14.5 | 0.00 | 0.03 | 0.03 | 65 | 1017.1 |
| 20260901164558 | 32 | 88 | 6.4 | 14.5 | 0.00 | 0.03 | 0.03 | 66 | 1017.1 |
| 20260901163113 | 32 | 57 | 6.4 | 12.9 | 0.00 | 0.03 | 0.03 | 70 | 1017.0 |
| 20260901161603 | 31 | 57 | 8.0 | 12.9 | 0.00 | 0.03 | 0.03 | 70 | 1016.9 |
| 20260901160053 | 31 | 38 | 9.7 | 16.1 | 0.00 | 0.03 | 0.03 | 70 | 1017.1 |
| 20260901154548 | 31 | 32 | 6.4 | 17.7 | 0.00 | 0.03 | 0.03 | 72 | 1017.1 |
| 20260901153043 | 30 | 41 | 6.4 | 12.9 | 0.00 | 0.03 | 0.03 | 74 | 1017.2 |
| 20260901151550 | 30 | 18 | 8.0 | 12.9 | 0.00 | 0.03 | 0.03 | 75 | 1017.3 |
| 20260901150037 | 29 | 94 | 0.0 | 8.0 | 0.00 | 0.03 | 0.03 | 78 | 1017.2 |
| 20260901144532 | 28 | 114 | 1.6 | 8.0 | 0.00 | 0.03 | 0.03 | 82 | 1017.3 |
| 20260901143026 | 27 | 116 | 1.6 | 6.4 | 0.00 | 0.03 | 0.03 | 84 | 1017.4 |
| 20260901141532 | 26 | 55 | 0.0 | 11.3 | 0.00 | 0.03 | 0.03 | 87 | 1017.4 |
| 20260901140017 | 25 | 92 | 0.0 | 0.0 | 0.00 | 0.03 | 0.03 | 93 | 1017.4 |
| 20260901134512 | 25 | 177 | 0.0 | 0.0 | 0.00 | 0.03 | 0.03 | 96 | 1017.5 |
| 20260901133010 | 24 | 211 | 0.0 | 0.0 | 0.00 | 0.03 | 0.03 | 98 | 1017.6 |
| 20260901131506 | 23 | 211 | 0.0 | 0.0 | 0.00 | 0.03 | 0.03 | 99 | 1017.6 |
| 20260901130000 | 23 | 211 | 0.0 | 0.0 | 0.00 | 0.03 | 0.03 | 99 | 1017.7 |
| 20260901124600 | 22 | 211 | 0.0 | 0.0 | 0.00 | 0.03 | 0.03 | 99 | 1017.7 |
| 20260901123059 | 22 | 211 | 0.0 | 0.0 | 0.00 | 0.03 | 0.03 | 99 | 1017.7 |
| 20260901121603 | 21 | 211 | 0.0 | 0.0 | 0.00 | 0.03 | 0.03 | 99 | 1017.8 |
| 20260901120026 | 21 | 211 | 0.0 | 0.0 | 0.00 | 0.03 | 0.03 | 99 | 1017.7 |
| 20260901114526 | 21 | 211 | 0.0 | 0.0 | 0.00 | 0.03 | 0.03 | 99 | 1017.4 |
| 20260901113023 | 21 | 211 | 0.0 | 0.0 | 0.00 | 0.03 | 0.03 | 99 | 1017.2 |
| 20260901111520 | 21 | 211 | 0.0 | 0.0 | 0.00 | 0.03 | 0.03 | 99 | 1017.1 |
| 20260901110019 | 21 | 211 | 0.0 | 0.0 | 0.00 | 0.03 | 0.03 | 99 | 1016.9 |
| 20260901104521 | 21 | 211 | 0.0 | 0.0 | 0.00 | 0.03 | 0.03 | 99 | 1016.8 |
| 20260901103014 | 21 | 211 | 0.0 | 0.0 | 0.00 | 0.03 | 0.03 | 99 | 1016.7 |
| 20260901101514 | 21 | 211 | 0.0 | 0.0 | 0.00 | 0.03 | 0.03 | 99 | 1016.6 |
| 20260901100014 | 21 | 211 | 0.0 | 0.0 | 0.00 | 0.03 | 0.03 | 98 | 1016.6 |
| 20260901094512 | 21 | 211 | 0.0 | 0.0 | 0.00 | 0.03 | 0.03 | 98 | 1016.5 |
| 20260901093007 | 21 | 211 | 0.0 | 0.0 | 0.00 | 0.03 | 0.03 | 99 | 1016.3 |
| 20260901091507 | 21 | 211 | 0.0 | 0.0 | 0.03 | 0.03 | 0.03 | 99 | 1016.2 |
| 20260901090007 | 21 | 211 | 0.0 | 0.0 | 0.03 | 0.03 | 0.03 | 99 | 1016.2 |
| 20260901084504 | 21 | 211 | 0.0 | 0.0 | 0.03 | 0.03 | 0.03 | 98 | 1016.1 |
| 20260901083004 | 21 | 211 | 0.0 | 0.0 | 0.03 | 0.03 | 0.03 | 98 | 1016.1 |
| 20260901081500 | 21 | 211 | 0.0 | 0.0 | 0.00 | 0.00 | 0.00 | 99 | 1016.0 |
| 20260901080113 | 21 | 211 | 0.0 | 0.0 | 0.00 | 0.00 | 0.00 | 98 | 1016.0 |
| 20260901074623 | 22 | 211 | 0.0 | 0.0 | 0.00 | 0.00 | 0.00 | 98 | 1016.1 |
| 20260901073059 | 22 | 211 | 0.0 | 0.0 | 0.00 | 0.00 | 0.00 | 98 | 1016.0 |
| 20260901071526 | 22 | 211 | 0.0 | 0.0 | 0.00 | 0.00 | 0.00 | 98 | 1015.8 |
| 20260901070026 | 22 | 209 | 0.0 | 0.0 | 0.00 | 0.00 | 0.00 | 98 | 1015.9 |
| 20260901064523 | 22 | 209 | 0.0 | 0.0 | 0.00 | 0.00 | 0.00 | 98 | 1015.7 |
| 20260901063024 | 22 | 209 | 0.0 | 0.0 | 0.00 | 0.00 | 0.00 | 98 | 1015.7 |
| 20260901061521 | 22 | 209 | 0.0 | 0.0 | 0.00 | 0.00 | 0.00 | 98 | 1015.7 |
| 20260901060035 | 22 | 209 | 0.0 | 0.0 | 0.00 | 0.00 | 0.00 | 98 | 1015.8 |
| 20260901054549 | 22 | 209 | 0.0 | 0.0 | 0.00 | 0.00 | 0.00 | 98 | 1016.0 |
| 20260901053057 | 23 | 209 | 0.0 | 0.0 | 0.00 | 0.00 | 0.00 | 98 | 1016.1 |
| 20260901051508 | 23 | 209 | 0.0 | 0.0 | 0.00 | 0.00 | 0.00 | 97 | 1016.3 |
| 20260901050005 | 23 | 209 | 0.0 | 0.0 | 0.00 | 0.00 | 0.00 | 97 | 1016.2 |
| 20260901044502 | 23 | 209 | 0.0 | 0.0 | 0.00 | 0.00 | 0.00 | 97 | 1016.3 |
| 20260901043001 | 23 | 209 | 0.0 | 0.0 | 0.00 | 0.00 | 0.00 | 97 | 1016.3 |
| 20260901041501 | 23 | 209 | 0.0 | 0.0 | 0.00 | 0.00 | 0.00 | 97 | 1016.4 |
| 20260901040136 | 23 | 209 | 0.0 | 0.0 | 0.00 | 0.00 | 0.00 | 97 | 1016.5 |
| 20260901034558 | 23 | 208 | 0.0 | 0.0 | 0.00 | 0.00 | 0.00 | 97 | 1016.6 |
| 20260901033057 | 24 | 208 | 0.0 | 0.0 | 0.00 | 0.00 | 0.00 | 96 | 1016.5 |
| 20260901031559 | 24 | 208 | 0.0 | 0.0 | 0.00 | 0.00 | 0.00 | 96 | 1016.6 |
| 20260901024555 | 24 | 208 | 0.0 | 0.0 | 0.00 | 0.00 | 0.00 | 96 | 1016.6 |
| 20260901023100 | 25 | 208 | 0.0 | 0.0 | 0.00 | 0.00 | 0.00 | 96 | 1016.7 |
| 20260901021552 | 25 | 208 | 0.0 | 0.0 | 0.00 | 0.00 | 0.00 | 95 | 1016.6 |
| 20260901020055 | 25 | 208 | 0.0 | 0.0 | 0.00 | 0.00 | 0.00 | 95 | 1016.5 |
| 20260901014548 | 25 | 207 | 0.0 | 0.0 | 0.00 | 0.00 | 0.00 | 95 | 1016.4 |
| 20260901013055 | 25 | 207 | 0.0 | 0.0 | 0.00 | 0.00 | 0.00 | 95 | 1016.2 |
| 20260901011548 | 25 | 207 | 0.0 | 0.0 | 0.00 | 0.00 | 0.00 | 94 | 1016.0 |
| 20260901004516 | 26 | 207 | 0.0 | 1.6 | 0.00 | 0.00 | 0.00 | 93 | 1015.7 |
| 20260901003021 | 26 | 207 | 0.0 | 0.0 | 0.00 | 0.00 | 0.00 | 92 | 1015.5 |
| 20260901001525 | 26 | 207 | 0.0 | 3.2 | 0.00 | 0.00 | 0.00 | 91 | 1015.3 |
| 20260901000013 | 26 | 206 | 0.0 | 6.4 | 0.00 | 0.00 | 0.00 | 90 | 1015.2 |
| 20260831234512 | 27 | 207 | 4.8 | 8.0 | 0.00 | 0.00 | 0.00 | 89 | 1015.3 |
| 20260831233029 | 28 | 190 | 0.0 | 0.0 | 0.00 | 0.00 | 0.00 | 86 | 1015.3 |
| 20260831231517 | 28 | 183 | 0.0 | 0.0 | 0.00 | 0.00 | 0.00 | 84 | 1015.4 |
| 20260831230010 | 29 | 175 | 0.0 | 3.2 | 0.00 | 0.00 | 0.00 | 81 | 1015.5 |